Location: Misciano
(43.5000°N, 11.9500°E)
Time: 17:11:29
(UTC+00:00)

X-37B - Pass Details

Date: 13 August 2020
Orbit: 386 x 387 km, 45.0° (Epoch: 18 September)

Event Time Altitude Azimuth Distance (km) Brightness Sun altitude
Rises 19:10:10 0° 271° (W) 2,263 5.7 -9.4°
Reaches altitude 10° 19:12:15 10° 275° (W) 1,410 4.6 -9.7°
Maximum altitude 19:15:24 63° 357° (N) 433 0.9 -10.2°
Enters shadow 19:18:29 11° 80° (E) 1,382 2.9 -10.7°
